Regional Weather Roundup
Issued by NWS

Home | Current Version | Previous Version | Text Only | Print | Product List | Glossary On
Versions: 1 2 3 4 5 6 7 8 9 10 11 12 13 14 15 16 17 18 19 20 21 22 23 24 25 26 27 28 29 30 31 32 33 34 35 36 37 38 39 40 41 42 43 44 45 46 47 48 49 50
000
ASUS42 KFFC 051310
RWRGA
WEATHER ROUNDUP FOR GEORGIA
NATIONAL WEATHER SERVICE PEACHTREE CITY GA
900 AM EDT WED AUG 05 2015

NOTE: "FAIR" INDICATES FEW OR NO CLOUDS BELOW 12,000 FEET WITH NO
SIGNIFICANT WEATHER AND/OR OBSTRUCTIONS TO VISIBILITY.

* = USE WITH CAUTION. THE STATIONS MARKED WITH AN ASTERISK MAY NOT
REPORT WEATHER SUCH AS PRECIPITATION, FOG, OR THUNDER AND ARE NOT
QUALITY CONTROLLED BY NWS.

THE REMARK "TC" DENOTES TEMPERATURE READING IN DEGREES CELSIUS.

GAZ001>058-051400-
NORTH GEORGIA

CITY           SKY/WX    TMP DP  RH WIND       PRES   REMARKS
ATLANTA        MOSUNNY   80  68  66 W6        30.06R
ATHENS         MOSUNNY   79  70  74 SW3       30.06R
CHAMBLEE       SUNNY     78  69  73 W3        30.06S
PEACHTREE CITY SUNNY     78  71  79 W5        30.07R
ROME           MOSUNNY   77  70  79 CALM      30.04R
WEST ATLANTA   MOSUNNY   76  68  76 SW3       30.05S
GAINESVILLE    MOSUNNY   78  68  71 CALM      30.10R
CARTERSVILLE   MOSUNNY   78  67  68 CALM      30.05S


CITY           SKY/WX    TMP DP  RH WIND       PRES   REMARKS
DALTON*        CLOUDY    73  72  94 CALM      30.05R
LAWRENCEVILLE* SUNNY     77  63  61 CALM      30.05S
MARIETTA       MOSUNNY   78  69  72 S3        30.06R
KENNESAW*      MOSUNNY   77  64  65 NW5       30.07S
BLAIRSVILLE*     N/A     67  58  73 CALM      30.13S
$$

GAZ059>098-102>109-051400-
CENTRAL GEORGIA

CITY           SKY/WX    TMP DP  RH WIND       PRES   REMARKS
AUGUSTA-BUSH   SUNNY     81  73  76 VRB3      30.04R
AUGUSTA-DANIEL SUNNY     82  72  71 SW6       30.05R
COLUMBUS       SUNNY     79  70  74 NW5       30.05S
MACON          SUNNY     80  73  79 CALM      30.06R


CITY           SKY/WX    TMP DP  RH WIND       PRES   REMARKS
LAGRANGE*      SUNNY     82  77  85 CALM      30.06S HX  90
SYLVANIA*      SUNNY     81  76  86 W5        30.07R
MILLEDGEVILLE* SUNNY     79  72  78 CALM      30.06R
$$

GAZ099>101-110>166-051400-
SOUTH GEORGIA

CITY           SKY/WX    TMP DP  RH WIND       PRES   REMARKS
SAVANNAH       MOSUNNY   79  73  82 SW5       30.07R
VALDOSTA       MOSUNNY   81  77  89 VRB3      30.10R
ALMA           MOSUNNY   79  75  87 SW6       30.08R
ST SIMONS      MOSUNNY   81  76  84 SW7       30.09R
ALBANY         SUNNY     80  76  87 SW6       30.10R
HUNTER AFB     SUNNY     79  78  94 SW7       30.05R
BRUNSWICK      SUNNY     81  77  89 SW7       30.09S


CITY           SKY/WX    TMP DP  RH WIND       PRES   REMARKS
BAINBRIDGE*    MOSUNNY   82  79  89 S5        30.08S HX  93
MOULTRIE*      SUNNY     81  75  83 SW5       30.10R
VIDALIA*       MOSUNNY   79  75  89 SW6       30.07S
WAYCROSS*      MOSUNNY   82  80  93 SW3       30.09R HX  92
DOUGLAS*       MOSUNNY   81  77  89 SW6       30.10R
$$



USA.gov is the U.S. government's official web portal to all federal, state and local government web resources and services.